Location: Poughquag
(41.6090°N, 73.6820°W)
Time: 14:58:20
(UTC-04:00)

Altair - Pass Details

Date: 02 June 2020
Orbit: 1501 x 1683 km, 47.2° (Epoch: 05 July)

Event Time Altitude Azimuth Distance (km) Brightness Sun altitude
Rises 23:28:49 0° 256° (WSW) 4,834 10.2 -23.1°
Reaches altitude 10° 23:31:56 10° 258° (WSW) 3,871 9.7 -23.3°
Maximum altitude 23:41:55 74° 343° (NNW) 1,731 7.8 -23.9°
Drops below altitude 10° 23:52:07 10° 69° (ENE) 3,949 9.7 -24.5°
Sets 23:55:20 0° 71° (ENE) 4,936 10.2 -24.6°
